Flag for Canada Weather past 2 weeks in Stonewall, Manitoba, Canada

Now
59 °F

Clear.


Feels Like: 57 °F
Forecast: 53 / 81 °F
Wind: 10 mph from Southwest

Location: Winnipeg Int. Airportman.

Current Time: Sep 1, 2015 at 3:55:19 AM

Latest Report: Sep 1, 2015 at 3:00 AM


Visibility: 15 mi

Pressure: 29.79 "Hg

Humidity: 63%

Dew point: 46 °F

Location of StonewallLocation

Historic Weather in Stonewall — Graph

°F

Stonewall temperature yesterday

Maximum temperature yesterday: 79 °F (at 4:00 PM)
Minimum temperature yesterday: 63 °F (at 11:00 PM)
Average temperature yesterday: 71 °F

Past Weeks' High & Low Weather Summary

 TemperatureHumidityPressure
High90 °F (Aug 30, 4:00 PM)100% (Aug 17, 5:00 AM)30.22 "Hg (Aug 17, 5:00 AM)
Low37 °F (Aug 25, 6:00 AM)32% (Aug 20, 4:00 PM)29.38 "Hg (Aug 22, 9:00 PM)
Average64 °F73%29.86 "Hg
* Reported Aug 17 2:00 AM — Sep 1 2:00 AM, Stonewall, Weather by CustomWeather, © 2015

Note: Actual official high and low records may vary slightly from our data, if they occured in-between our weather recording intervals... More about our weather records

Advertising

Stonewall weather history for previous 24 hours

 ConditionsComfort  
Time TempWeatherWind HumidityBarometerVisibility
2:00 AM
Tue, Sep 1
59 °FClear.12 mph63%29.80 "Hg15 mi
1:00 AM61 °FClear.10 mph59%29.80 "Hg15 mi
12:00 AM63 °FClear.10 mph59%29.78 "Hg15 mi
11:00 PM
Mon, Aug 31
63 °FClear.10 mph59%29.78 "Hg15 mi
10:00 PM64 °FClear.10 mph60%29.77 "Hg15 mi
9:00 PM66 °FPassing clouds.8 mph56%29.76 "Hg15 mi
8:00 PM70 °FPassing clouds.9 mph46%29.75 "Hg15 mi
7:00 PM75 °FPassing clouds.13 mph36%29.73 "Hg15 mi
6:00 PM77 °FPassing clouds.13 mph36%29.72 "Hg15 mi
5:00 PM79 °FPassing clouds.16 mph37%29.71 "Hg15 mi
4:00 PM79 °FPassing clouds.18 mph42%29.70 "Hg15 mi
3:00 PM77 °FPartly sunny.13 mph51%29.70 "Hg15 mi
2:00 PM72 °FPartly sunny.14 mph65%29.71 "Hg11 mi
1:00 PM72 °FPartly sunny.6 mph73%29.70 "Hg11 mi
12:00 PM72 °FPartly sunny.17 mph73%29.71 "Hg11 mi
11:00 AM70 °FSprinkles. Partly sunny.9 mph83%29.68 "Hg8 mi
10:00 AM68 °FSprinkles. Broken clouds.8 mph88%29.64 "Hg8 mi
9:00 AM68 °FSprinkles. Partly sunny.7 mph94%29.66 "Hg8 mi
8:00 AM66 °FThunderstorms. Partly sunny.5 mph94%29.65 "Hg8 mi
7:00 AM66 °FThunderstorms. Passing clouds.13 mph94%29.61 "Hg10 mi
6:49 AM68 °FThunderstorms. Passing clouds.12 mph88%29.56 "Hg12 mi
6:00 AM68 °FSprinkles. Passing clouds.No wind94%29.61 "Hg10 mi
5:00 AM68 °FSprinkles. Passing clouds.5 mph100%29.59 "Hg15 mi
4:00 AM70 °FPassing clouds.10 mph94%29.60 "Hg15 mi
3:00 AM72 °FPassing clouds.8 mph88%29.59 "Hg15 mi
Weather by CustomWeather, © 2015

See weather overviewHow to use our weather pages